FFT3313 KLGA-KRDU

Flight info

Callsign FFT3313
Flight time 1h 32m
Altitude 26000
Route WHITE Q409 VILLS NALES Q141 HOUKY TAQLE3
Aircraft A320/M-SDE3FGHIRWY/LB1

Departure

Time 2026-05-07 01:13
Airport LaGuardia Airport (KLGA)

Arrival

Time 2026-05-07 02:45
Airport Raleigh-Durham International Airport (KRDU)
Time Latitude Longitude Altitude Speed Heading
2026-05-07 00:43 40.77429 -73.87004 21 ft 0 kts 131°
2026-05-07 00:59 40.77445 -73.87036 21 ft 4 kts 105°
2026-05-07 00:59 40.77445 -73.87066 22 ft 4 kts 49°
2026-05-07 00:59 40.77436 -73.87077 20 ft 1 kts 32°
2026-05-07 01:05 40.77449 -73.87066 21 ft 6 kts 32°
2026-05-07 01:05 40.77502 -73.87023 19 ft 12 kts 32°
2026-05-07 01:05 40.77580 -73.86958 17 ft 14 kts 32°
2026-05-07 01:06 40.77641 -73.86989 14 ft 10 kts 311°
2026-05-07 01:06 40.77702 -73.86994 13 ft 9 kts 341°
2026-05-07 01:06 40.77732 -73.87048 13 ft 6 kts 303°
2026-05-07 01:06 40.77752 -73.87090 13 ft 5 kts 303°
2026-05-07 01:07 40.77773 -73.87132 13 ft 7 kts 303°
2026-05-07 01:07 40.77808 -73.87202 15 ft 11 kts 301°
2026-05-07 01:07 40.77854 -73.87302 14 ft 12 kts 301°
2026-05-07 01:07 40.77896 -73.87389 14 ft 10 kts 302°
2026-05-07 01:08 40.77918 -73.87435 15 ft 0 kts 302°
2026-05-07 01:09 40.77933 -73.87465 16 ft 7 kts 302°
2026-05-07 01:10 40.77970 -73.87544 16 ft 13 kts 302°
2026-05-07 01:10 40.78033 -73.87677 15 ft 19 kts 302°
2026-05-07 01:10 40.78100 -73.87816 18 ft 13 kts 302°
2026-05-07 01:10 40.78135 -73.87854 18 ft 0 kts 343°
2026-05-07 01:12 40.78136 -73.87854 18 ft 1 kts 343°
2026-05-07 01:12 40.78162 -73.87864 14 ft 7 kts 345°
2026-05-07 01:12 40.78218 -73.87843 17 ft 9 kts 53°
2026-05-07 01:13 40.78170 -73.87727 14 ft 35 kts 122°
2026-05-07 01:13 40.77901 -73.87162 15 ft 106 kts 122°
2026-05-07 01:13 40.77409 -73.86144 130 ft 145 kts 126°
2026-05-07 01:13 40.76863 -73.85064 727 ft 145 kts 131°
2026-05-07 01:14 40.76051 -73.84181 1032 ft 160 kts 163°
2026-05-07 01:14 40.74929 -73.83773 1342 ft 179 kts 174°
2026-05-07 01:14 40.73637 -73.83381 1648 ft 201 kts 174°
2026-05-07 01:14 40.72186 -73.82936 2018 ft 224 kts 174°
2026-05-07 01:15 40.70652 -73.82801 2742 ft 219 kts 196°
2026-05-07 01:15 40.69148 -73.83183 3565 ft 221 kts 198°
2026-05-07 01:15 40.67644 -73.83605 4434 ft 220 kts 203°
2026-05-07 01:15 40.66311 -73.84517 4864 ft 221 kts 222°
2026-05-07 01:16 40.65079 -73.85765 5440 ft 225 kts 223°
2026-05-07 01:16 40.63843 -73.87026 6337 ft 225 kts 223°
2026-05-07 01:16 40.62605 -73.88293 7166 ft 226 kts 223°
2026-05-07 01:16 40.61272 -73.89479 7816 ft 240 kts 218°
2026-05-07 01:17 40.59817 -73.90679 8425 ft 251 kts 218°
2026-05-07 01:17 40.58320 -73.91899 9254 ft 254 kts 218°
2026-05-07 01:17 40.56781 -73.93099 9826 ft 261 kts 214°
2026-05-07 01:17 40.55135 -73.94108 9979 ft 261 kts 212°
2026-05-07 01:18 40.53474 -73.95072 10021 ft 261 kts 211°
2026-05-07 01:18 40.51743 -73.96093 10031 ft 287 kts 211°
2026-05-07 01:18 40.49895 -73.97207 10021 ft 293 kts 211°
2026-05-07 01:18 40.48061 -73.98306 10020 ft 290 kts 211°
2026-05-07 01:19 40.46210 -73.99418 10016 ft 293 kts 211°
2026-05-07 01:19 40.44356 -74.00535 10032 ft 294 kts 211°
2026-05-07 01:19 40.42502 -74.01671 10017 ft 294 kts 211°
2026-05-07 01:19 40.40653 -74.02821 10018 ft 295 kts 211°
2026-05-07 01:20 40.38801 -74.03976 10024 ft 294 kts 211°
2026-05-07 01:20 40.36954 -74.05125 10024 ft 294 kts 212°
2026-05-07 01:20 40.35101 -74.06274 10028 ft 295 kts 211°
2026-05-07 01:20 40.33243 -74.07429 10030 ft 295 kts 211°
2026-05-07 01:21 40.31413 -74.08567 10025 ft 295 kts 211°
2026-05-07 01:21 40.29538 -74.09736 10029 ft 295 kts 212°
2026-05-07 01:21 40.27689 -74.10889 10035 ft 295 kts 211°
2026-05-07 01:21 40.25833 -74.12045 10065 ft 297 kts 211°
2026-05-07 01:22 40.23972 -74.13206 10691 ft 302 kts 211°
2026-05-07 01:22 40.22062 -74.14419 11405 ft 308 kts 212°
2026-05-07 01:22 40.20128 -74.15650 12187 ft 310 kts 212°
2026-05-07 01:22 40.18178 -74.16887 12952 ft 313 kts 212°
2026-05-07 01:23 40.16206 -74.18135 13674 ft 316 kts 212°
2026-05-07 01:23 40.14298 -74.19535 14298 ft 313 kts 222°
2026-05-07 01:23 40.12623 -74.21348 14910 ft 315 kts 225°
2026-05-07 01:23 40.10939 -74.23203 15530 ft 318 kts 225°
2026-05-07 01:24 40.09242 -74.25076 16153 ft 321 kts 225°
2026-05-07 01:24 40.07529 -74.26972 16768 ft 324 kts 225°
2026-05-07 01:24 40.05801 -74.28886 17378 ft 328 kts 226°
2026-05-07 01:24 40.04050 -74.30820 17945 ft 332 kts 226°
2026-05-07 01:25 40.02275 -74.32774 18487 ft 335 kts 226°
2026-05-07 01:25 40.00509 -74.34713 19041 ft 337 kts 226°
2026-05-07 01:25 39.98714 -74.36682 19646 ft 337 kts 227°
2026-05-07 01:25 39.96918 -74.38652 20269 ft 337 kts 227°
2026-05-07 01:26 39.95126 -74.40616 20881 ft 337 kts 227°
2026-05-07 01:26 39.93332 -74.42584 21450 ft 337 kts 228°
2026-05-07 01:26 39.91533 -74.44558 22002 ft 338 kts 229°
2026-05-07 01:26 39.89732 -74.46531 22552 ft 339 kts 229°
2026-05-07 01:27 39.87922 -74.48511 23090 ft 340 kts 229°
2026-05-07 01:27 39.86103 -74.50498 23539 ft 342 kts 229°
2026-05-07 01:27 39.84272 -74.52499 23892 ft 345 kts 229°
2026-05-07 01:27 39.82430 -74.54513 24285 ft 347 kts 229°
2026-05-07 01:28 39.80579 -74.56536 24703 ft 348 kts 229°
2026-05-07 01:28 39.78719 -74.58565 25111 ft 349 kts 229°
2026-05-07 01:28 39.76851 -74.60599 25515 ft 351 kts 229°
2026-05-07 01:28 39.74977 -74.62636 25807 ft 352 kts 229°
2026-05-07 01:29 39.73113 -74.64655 25864 ft 342 kts 230°
2026-05-07 01:29 39.71920 -74.65939 25872 ft 333 kts 230°
2026-05-07 01:29 39.70149 -74.67850 25886 ft 328 kts 230°
2026-05-07 01:29 39.68405 -74.69745 25888 ft 327 kts 230°
2026-05-07 01:30 39.66668 -74.71640 25889 ft 326 kts 230°
2026-05-07 01:30 39.64930 -74.73540 25891 ft 326 kts 230°
2026-05-07 01:30 39.63195 -74.75433 25888 ft 326 kts 230°
2026-05-07 01:30 39.61456 -74.77321 25890 ft 326 kts 230°
2026-05-07 01:31 39.59713 -74.79204 25894 ft 326 kts 230°
2026-05-07 01:31 39.57968 -74.81085 25891 ft 326 kts 230°
2026-05-07 01:31 39.56225 -74.82965 25890 ft 326 kts 230°
2026-05-07 01:31 39.54483 -74.84848 25887 ft 326 kts 230°
2026-05-07 01:32 39.52742 -74.86731 25892 ft 326 kts 230°
2026-05-07 01:32 39.51004 -74.88608 25887 ft 326 kts 230°
2026-05-07 01:32 39.49260 -74.90487 25883 ft 326 kts 230°
2026-05-07 01:32 39.47516 -74.92363 25852 ft 326 kts 230°
2026-05-07 01:33 39.45773 -74.94236 25855 ft 326 kts 230°
2026-05-07 01:33 39.44023 -74.96118 25858 ft 327 kts 230°
2026-05-07 01:33 39.42275 -74.97999 25864 ft 327 kts 230°
2026-05-07 01:33 39.40520 -74.99886 25864 ft 327 kts 230°
2026-05-07 01:34 39.38770 -75.01765 25861 ft 328 kts 230°
2026-05-07 01:34 39.37013 -75.03649 25888 ft 328 kts 230°
2026-05-07 01:34 39.35277 -75.05509 25890 ft 328 kts 230°
2026-05-07 01:34 39.33521 -75.07386 25929 ft 328 kts 230°
2026-05-07 01:35 39.31768 -75.09260 25926 ft 327 kts 230°
2026-05-07 01:35 39.30030 -75.11148 25925 ft 323 kts 233°
2026-05-07 01:35 39.28455 -75.13186 25873 ft 321 kts 234°
2026-05-07 01:35 39.26889 -75.15235 25873 ft 321 kts 234°
2026-05-07 01:36 39.25316 -75.17285 25877 ft 321 kts 234°
2026-05-07 01:36 39.23737 -75.19336 25874 ft 322 kts 234°
2026-05-07 01:36 39.22160 -75.21380 25873 ft 322 kts 234°
2026-05-07 01:36 39.20574 -75.23428 25858 ft 323 kts 234°
2026-05-07 01:37 39.18983 -75.25483 25861 ft 323 kts 234°
2026-05-07 01:37 39.17396 -75.27531 25864 ft 323 kts 234°
2026-05-07 01:37 39.15811 -75.29577 25865 ft 323 kts 234°
2026-05-07 01:37 39.14225 -75.31624 25867 ft 322 kts 234°
2026-05-07 01:38 39.12641 -75.33671 25870 ft 322 kts 234°
2026-05-07 01:38 39.11058 -75.35714 25871 ft 322 kts 234°
2026-05-07 01:38 39.09473 -75.37757 25838 ft 322 kts 234°
2026-05-07 01:38 39.07864 -75.39839 25866 ft 334 kts 234°
2026-05-07 01:39 39.06196 -75.42010 25876 ft 347 kts 233°
2026-05-07 01:39 39.04464 -75.44263 25889 ft 360 kts 233°
2026-05-07 01:39 39.02667 -75.46588 25880 ft 372 kts 233°
2026-05-07 01:39 39.00838 -75.48941 25884 ft 381 kts 233°
2026-05-07 01:40 38.98934 -75.51378 25877 ft 391 kts 232°
2026-05-07 01:40 38.96986 -75.53860 25872 ft 396 kts 232°
2026-05-07 01:40 38.95019 -75.56359 25879 ft 398 kts 232°
2026-05-07 01:40 38.93049 -75.58864 25878 ft 398 kts 232°
2026-05-07 01:41 38.91080 -75.61373 25880 ft 399 kts 232°
2026-05-07 01:41 38.89220 -75.63985 25871 ft 394 kts 240°
2026-05-07 01:41 38.87797 -75.66966 25876 ft 391 kts 245°
2026-05-07 01:41 38.86444 -75.69991 25898 ft 391 kts 245°
2026-05-07 01:42 38.85089 -75.73024 25897 ft 391 kts 245°
2026-05-07 01:42 38.83732 -75.76052 25894 ft 391 kts 245°
2026-05-07 01:42 38.82372 -75.79076 25919 ft 391 kts 245°
2026-05-07 01:42 38.81012 -75.82089 25919 ft 390 kts 245°
2026-05-07 01:43 38.79651 -75.85097 25908 ft 390 kts 245°
2026-05-07 01:43 38.78289 -75.88103 25910 ft 389 kts 245°
2026-05-07 01:43 38.76928 -75.91102 25901 ft 389 kts 245°
2026-05-07 01:43 38.75573 -75.94092 25911 ft 388 kts 245°
2026-05-07 01:44 38.74187 -75.97066 25915 ft 391 kts 241°
2026-05-07 01:44 38.72336 -75.99663 25868 ft 403 kts 227°
2026-05-07 01:44 38.70103 -76.01874 25872 ft 406 kts 225°
2026-05-07 01:44 38.69879 -76.02092 25870 ft 406 kts 225°
2026-05-07 01:45 38.68859 -76.03084 25871 ft 407 kts 225°
2026-05-07 01:45 38.66623 -76.05249 25873 ft 407 kts 225°
2026-05-07 01:45 38.64363 -76.07433 25876 ft 408 kts 225°
2026-05-07 01:45 38.62098 -76.09625 25884 ft 408 kts 225°
2026-05-07 01:46 38.59832 -76.11821 25877 ft 409 kts 225°
2026-05-07 01:46 38.57564 -76.14022 25878 ft 409 kts 225°
2026-05-07 01:46 38.55298 -76.16221 25902 ft 409 kts 225°
2026-05-07 01:46 38.53032 -76.18413 25913 ft 409 kts 225°
2026-05-07 01:47 38.50762 -76.20605 25864 ft 409 kts 225°
2026-05-07 01:47 38.48500 -76.22791 25871 ft 409 kts 225°
2026-05-07 01:47 38.46229 -76.24988 25868 ft 409 kts 225°
2026-05-07 01:47 38.43960 -76.27185 25879 ft 410 kts 225°
2026-05-07 01:48 38.41689 -76.29384 25880 ft 410 kts 225°
2026-05-07 01:48 38.39416 -76.31581 25881 ft 410 kts 225°
2026-05-07 01:48 38.37135 -76.33780 25886 ft 410 kts 225°
2026-05-07 01:48 38.34862 -76.35969 25888 ft 411 kts 224°
2026-05-07 01:49 38.32580 -76.38157 25890 ft 411 kts 224°
2026-05-07 01:49 38.30289 -76.40351 25865 ft 411 kts 224°
2026-05-07 01:49 38.28180 -76.42759 25867 ft 404 kts 232°
2026-05-07 01:49 38.26251 -76.45354 25870 ft 404 kts 232°
2026-05-07 01:50 38.24318 -76.47961 25872 ft 405 kts 232°
2026-05-07 01:50 38.22382 -76.50569 25882 ft 405 kts 232°
2026-05-07 01:50 38.20450 -76.53169 25888 ft 405 kts 232°
2026-05-07 01:50 38.18517 -76.55767 25895 ft 404 kts 232°
2026-05-07 01:51 38.16584 -76.58361 25896 ft 404 kts 232°
2026-05-07 01:51 38.14672 -76.60924 25899 ft 404 kts 232°
2026-05-07 01:51 38.12741 -76.63508 25897 ft 404 kts 232°
2026-05-07 01:51 38.10806 -76.66091 25862 ft 404 kts 232°
2026-05-07 01:52 38.08861 -76.68682 25863 ft 405 kts 232°
2026-05-07 01:52 38.06921 -76.71270 25470 ft 403 kts 232°
2026-05-07 01:52 38.04981 -76.73857 25022 ft 407 kts 232°
2026-05-07 01:52 38.03014 -76.76480 24869 ft 411 kts 232°
2026-05-07 01:53 38.01041 -76.79109 24893 ft 413 kts 232°
2026-05-07 01:53 37.99049 -76.81738 24901 ft 415 kts 230°
2026-05-07 01:53 37.96778 -76.84044 24900 ft 424 kts 220°
2026-05-07 01:53 37.94127 -76.85777 24900 ft 436 kts 210°
2026-05-07 01:54 37.91253 -76.87093 24891 ft 439 kts 208°
2026-05-07 01:54 37.88379 -76.88395 24914 ft 439 kts 208°
2026-05-07 01:54 37.85500 -76.89701 24915 ft 439 kts 208°
2026-05-07 01:54 37.82628 -76.91008 24915 ft 439 kts 208°
2026-05-07 01:55 37.79750 -76.92315 24916 ft 439 kts 208°
2026-05-07 01:55 37.76873 -76.93617 24915 ft 439 kts 208°
2026-05-07 01:55 37.73998 -76.94920 24913 ft 439 kts 208°
2026-05-07 01:55 37.71118 -76.96224 24912 ft 439 kts 208°
2026-05-07 01:56 37.68249 -76.97520 24913 ft 439 kts 208°
2026-05-07 01:56 37.65371 -76.98818 24914 ft 439 kts 208°
2026-05-07 01:56 37.62496 -77.00113 24913 ft 439 kts 208°
2026-05-07 01:56 37.59623 -77.01410 24910 ft 439 kts 208°
2026-05-07 01:57 37.56788 -77.02689 24908 ft 438 kts 208°
2026-05-07 01:57 37.53917 -77.03983 24906 ft 438 kts 208°
2026-05-07 01:57 37.51048 -77.05277 24904 ft 438 kts 208°
2026-05-07 01:57 37.48173 -77.06571 24903 ft 438 kts 208°
2026-05-07 01:58 37.45301 -77.07861 24879 ft 438 kts 207°
2026-05-07 01:58 37.42424 -77.09150 24883 ft 439 kts 207°
2026-05-07 01:58 37.39542 -77.10440 24885 ft 439 kts 207°
2026-05-07 01:58 37.36660 -77.11729 24891 ft 440 kts 207°
2026-05-07 01:59 37.33777 -77.13024 24893 ft 439 kts 208°
2026-05-07 01:59 37.31000 -77.14538 24895 ft 435 kts 212°
2026-05-07 01:59 37.29165 -77.15595 24901 ft 435 kts 212°
2026-05-07 02:00 37.27773 -77.16399 24897 ft 435 kts 212°
2026-05-07 02:01 37.26692 -77.17026 24895 ft 435 kts 212°
2026-05-07 02:01 37.23941 -77.18625 24904 ft 436 kts 212°
2026-05-07 02:01 37.21690 -77.19939 24920 ft 439 kts 212°
2026-05-07 02:02 37.20084 -77.20876 24927 ft 440 kts 212°
2026-05-07 02:02 37.17308 -77.22489 24937 ft 440 kts 212°
2026-05-07 02:02 37.14603 -77.24253 24953 ft 435 kts 217°
2026-05-07 02:02 37.11995 -77.26165 24953 ft 435 kts 217°
2026-05-07 02:03 37.09387 -77.28077 24954 ft 434 kts 217°
2026-05-07 02:03 37.06778 -77.29994 24954 ft 434 kts 217°
2026-05-07 02:03 37.04173 -77.31912 24954 ft 434 kts 217°
2026-05-07 02:03 37.01608 -77.33810 24922 ft 434 kts 217°
2026-05-07 02:04 36.99016 -77.35743 24916 ft 434 kts 217°
2026-05-07 02:04 36.96422 -77.37686 24917 ft 434 kts 217°
2026-05-07 02:04 36.93830 -77.39628 24918 ft 435 kts 217°
2026-05-07 02:04 36.91226 -77.41574 24937 ft 435 kts 217°
2026-05-07 02:05 36.88624 -77.43512 24945 ft 436 kts 217°
2026-05-07 02:05 36.86016 -77.45446 24952 ft 436 kts 217°
2026-05-07 02:05 36.83400 -77.47379 24961 ft 436 kts 217°
2026-05-07 02:05 36.80789 -77.49306 24937 ft 436 kts 217°
2026-05-07 02:06 36.78176 -77.51235 24947 ft 437 kts 217°
2026-05-07 02:06 36.75555 -77.53169 24951 ft 437 kts 217°
2026-05-07 02:06 36.72930 -77.55102 24955 ft 438 kts 217°
2026-05-07 02:06 36.70310 -77.57032 24958 ft 437 kts 218°
2026-05-07 02:07 36.67884 -77.59260 24967 ft 431 kts 225°
2026-05-07 02:07 36.63285 -77.63974 24971 ft 431 kts 225°
2026-05-07 02:07 36.60975 -77.66343 24966 ft 431 kts 225°
2026-05-07 02:08 36.58661 -77.68716 24924 ft 431 kts 225°
2026-05-07 02:08 36.56349 -77.71083 24921 ft 431 kts 225°
2026-05-07 02:08 36.54027 -77.73452 24930 ft 432 kts 225°
2026-05-07 02:08 36.51703 -77.75820 24924 ft 433 kts 225°
2026-05-07 02:09 36.49373 -77.78194 24935 ft 433 kts 225°
2026-05-07 02:09 36.47041 -77.80571 24935 ft 433 kts 225°
2026-05-07 02:09 36.44708 -77.82948 24921 ft 434 kts 225°
2026-05-07 02:09 36.42377 -77.85322 24922 ft 434 kts 225°
2026-05-07 02:10 36.40042 -77.87698 24925 ft 434 kts 225°
2026-05-07 02:10 36.37702 -77.90067 24930 ft 434 kts 225°
2026-05-07 02:10 36.35358 -77.92434 24909 ft 434 kts 225°
2026-05-07 02:10 36.33017 -77.94804 24919 ft 434 kts 225°
2026-05-07 02:11 36.30678 -77.97171 24971 ft 432 kts 225°
2026-05-07 02:11 36.28350 -77.99523 24974 ft 431 kts 225°
2026-05-07 02:11 36.26031 -78.01860 24983 ft 429 kts 225°
2026-05-07 02:11 36.23755 -78.04154 24987 ft 427 kts 225°
2026-05-07 02:12 36.21672 -78.06626 24959 ft 400 kts 238°
2026-05-07 02:12 36.20403 -78.09573 24963 ft 383 kts 254°
2026-05-07 02:12 36.19852 -78.12765 24964 ft 378 kts 266°
2026-05-07 02:12 36.19929 -78.16005 24967 ft 377 kts 277°
2026-05-07 02:13 36.20612 -78.19148 24968 ft 380 kts 289°
2026-05-07 02:13 36.21906 -78.22019 24967 ft 385 kts 302°
2026-05-07 02:13 36.23762 -78.24402 24966 ft 388 kts 315°
2026-05-07 02:13 36.26102 -78.26137 24959 ft 397 kts 329°
2026-05-07 02:14 36.28775 -78.27063 24960 ft 405 kts 344°
2026-05-07 02:14 36.31630 -78.27083 24960 ft 419 kts 359°
2026-05-07 02:14 36.33537 -78.26545 24962 ft 431 kts 11°
2026-05-07 02:14 36.36260 -78.24844 24960 ft 448 kts 28°
2026-05-07 02:15 36.38714 -78.22408 24960 ft 454 kts 34°
2026-05-07 02:15 36.41074 -78.19782 24976 ft 457 kts 36°
2026-05-07 02:15 36.43376 -78.17039 24952 ft 460 kts 38°
2026-05-07 02:15 36.45649 -78.14245 24953 ft 461 kts 39°
2026-05-07 02:16 36.47693 -78.11132 24951 ft 472 kts 55°
2026-05-07 02:16 36.48962 -78.07350 24950 ft 479 kts 75°
2026-05-07 02:16 36.49269 -78.03245 24939 ft 477 kts 96°
2026-05-07 02:16 36.48560 -77.99335 24949 ft 452 kts 117°
2026-05-07 02:17 36.47023 -77.96065 24950 ft 427 kts 136°
2026-05-07 02:17 36.44913 -77.93605 24941 ft 408 kts 154°
2026-05-07 02:17 36.42458 -77.92015 24950 ft 390 kts 170°
2026-05-07 02:17 36.39874 -77.91290 24950 ft 374 kts 185°
2026-05-07 02:18 36.37337 -77.91372 24933 ft 358 kts 199°
2026-05-07 02:18 36.34988 -77.92171 24950 ft 345 kts 212°
2026-05-07 02:18 36.32914 -77.93572 24954 ft 334 kts 224°
2026-05-07 02:18 36.31180 -77.95422 24955 ft 328 kts 230°
2026-05-07 02:19 36.29537 -77.97339 24959 ft 328 kts 230°
2026-05-07 02:19 36.27873 -77.99277 24961 ft 327 kts 230°
2026-05-07 02:19 36.26212 -78.01208 24962 ft 327 kts 230°
2026-05-07 02:19 36.24553 -78.03136 24963 ft 327 kts 231°
2026-05-07 02:20 36.22908 -78.05075 24962 ft 324 kts 234°
2026-05-07 02:20 36.21684 -78.07340 24963 ft 312 kts 252°
2026-05-07 02:20 36.21187 -78.09914 24960 ft 307 kts 268°
2026-05-07 02:20 36.21440 -78.12524 24956 ft 308 kts 285°
2026-05-07 02:21 36.22414 -78.14902 24951 ft 316 kts 302°
2026-05-07 02:21 36.24060 -78.16772 24945 ft 331 kts 321°
2026-05-07 02:21 36.26262 -78.17809 24936 ft 351 kts 342°
2026-05-07 02:21 36.28778 -78.17697 24931 ft 377 kts
2026-05-07 02:22 36.31196 -78.16232 24925 ft 401 kts 30°
2026-05-07 02:22 36.33344 -78.13987 24928 ft 407 kts 34°
2026-05-07 02:22 36.35424 -78.11584 24920 ft 410 kts 37°
2026-05-07 02:22 36.37469 -78.09103 24920 ft 412 kts 38°
2026-05-07 02:23 36.39288 -78.06317 24923 ft 425 kts 57°
2026-05-07 02:23 36.40212 -78.02806 24913 ft 433 kts 83°
2026-05-07 02:23 36.40016 -77.99104 24912 ft 430 kts 109°
2026-05-07 02:23 36.38744 -77.95832 24910 ft 415 kts 135°
2026-05-07 02:24 36.36664 -77.93473 24921 ft 401 kts 155°
2026-05-07 02:24 36.34210 -77.91955 24925 ft 387 kts 171°
2026-05-07 02:24 36.31659 -77.91328 24913 ft 370 kts 187°
2026-05-07 02:24 36.29159 -77.91538 24440 ft 353 kts 202°
2026-05-07 02:25 36.26902 -77.92560 23861 ft 340 kts 217°
2026-05-07 02:25 36.24983 -77.94199 23238 ft 332 kts 229°
2026-05-07 02:25 36.23425 -77.96322 22119 ft 338 kts 241°
2026-05-07 02:25 36.22334 -77.98916 21135 ft 341 kts 253°
2026-05-07 02:26 36.21628 -78.01730 20351 ft 344 kts 256°
2026-05-07 02:26 36.20930 -78.04576 19622 ft 346 kts 256°
2026-05-07 02:26 36.20222 -78.07432 18785 ft 350 kts 256°
2026-05-07 02:26 36.19488 -78.10383 17489 ft 366 kts 255°
2026-05-07 02:27 36.18731 -78.13427 16420 ft 373 kts 255°
2026-05-07 02:27 36.17965 -78.16508 15539 ft 375 kts 254°
2026-05-07 02:27 36.17195 -78.19601 14631 ft 377 kts 254°
2026-05-07 02:27 36.16418 -78.22725 13693 ft 381 kts 253°
2026-05-07 02:28 36.15645 -78.25826 13112 ft 374 kts 253°
2026-05-07 02:28 36.14895 -78.28897 12356 ft 371 kts 255°
2026-05-07 02:28 36.14269 -78.31938 12105 ft 356 kts 257°
2026-05-07 02:28 36.13744 -78.34871 11744 ft 345 kts 258°
2026-05-07 02:29 36.13018 -78.37680 11090 ft 344 kts 244°
2026-05-07 02:29 36.11521 -78.40004 10377 ft 351 kts 223°
2026-05-07 02:29 36.09387 -78.41520 9596 ft 361 kts 203°
2026-05-07 02:29 36.06874 -78.42009 8738 ft 374 kts 183°
2026-05-07 02:30 36.04315 -78.41323 8194 ft 380 kts 161°
2026-05-07 02:30 36.02166 -78.39576 8013 ft 373 kts 140°
2026-05-07 02:30 36.00686 -78.37027 8005 ft 361 kts 117°
2026-05-07 02:30 36.00083 -78.34100 8015 ft 347 kts 93°
2026-05-07 02:31 36.00285 -78.31213 8010 ft 330 kts 81°
2026-05-07 02:31 36.00672 -78.28491 8017 ft 313 kts 79°
2026-05-07 02:31 36.01085 -78.25922 8013 ft 296 kts 72°
2026-05-07 02:31 36.02022 -78.23786 8012 ft 274 kts 41°
2026-05-07 02:32 36.03526 -78.22533 8016 ft 255 kts 10°
2026-05-07 02:32 36.05229 -78.22242 8021 ft 244 kts 353°
2026-05-07 02:32 36.06924 -78.22253 8017 ft 243 kts 350°
2026-05-07 02:32 36.08616 -78.22296 8017 ft 243 kts 350°
2026-05-07 02:33 36.10305 -78.22344 8016 ft 243 kts 350°
2026-05-07 02:33 36.11996 -78.22402 8011 ft 243 kts 350°
2026-05-07 02:33 36.13662 -78.22559 7981 ft 235 kts 338°
2026-05-07 02:33 36.15078 -78.23376 7684 ft 219 kts 313°
2026-05-07 02:34 36.16028 -78.24771 7340 ft 209 kts 292°
2026-05-07 02:34 36.16439 -78.26458 7026 ft 203 kts 272°
2026-05-07 02:34 36.16296 -78.28178 6721 ft 202 kts 253°
2026-05-07 02:34 36.15860 -78.29826 6412 ft 202 kts 253°
2026-05-07 02:35 36.15424 -78.31475 6092 ft 201 kts 253°
2026-05-07 02:35 36.14997 -78.33095 5821 ft 200 kts 253°
2026-05-07 02:35 36.14550 -78.34740 5531 ft 198 kts 252°
2026-05-07 02:35 36.14117 -78.36325 5264 ft 196 kts 252°
2026-05-07 02:36 36.13689 -78.37907 5063 ft 193 kts 252°
2026-05-07 02:36 36.13292 -78.39503 5016 ft 194 kts 254°
2026-05-07 02:36 36.12921 -78.41116 5014 ft 196 kts 254°
2026-05-07 02:36 36.12571 -78.42748 5013 ft 196 kts 255°
2026-05-07 02:37 36.12236 -78.44383 4970 ft 193 kts 255°
2026-05-07 02:37 36.11908 -78.45946 4861 ft 183 kts 252°
2026-05-07 02:37 36.11500 -78.47414 4735 ft 177 kts 251°
2026-05-07 02:37 36.11083 -78.48813 4608 ft 170 kts 250°
2026-05-07 02:38 36.10686 -78.50169 4479 ft 165 kts 250°
2026-05-07 02:38 36.10275 -78.51477 4292 ft 162 kts 240°
2026-05-07 02:38 36.09590 -78.52579 4112 ft 162 kts 231°
2026-05-07 02:38 36.08834 -78.53608 4025 ft 163 kts 230°
2026-05-07 02:39 36.08059 -78.54608 4009 ft 163 kts 229°
2026-05-07 02:39 36.07260 -78.55617 4005 ft 165 kts 228°
2026-05-07 02:39 36.06452 -78.56628 4008 ft 166 kts 228°
2026-05-07 02:39 36.05640 -78.57640 4006 ft 165 kts 228°
2026-05-07 02:40 36.04836 -78.58639 4004 ft 164 kts 228°
2026-05-07 02:40 36.04033 -78.59639 4005 ft 163 kts 228°
2026-05-07 02:40 36.03230 -78.60637 3994 ft 164 kts 229°
2026-05-07 02:40 36.02422 -78.61641 3870 ft 165 kts 229°
2026-05-07 02:41 36.01614 -78.62645 3701 ft 165 kts 228°
2026-05-07 02:41 36.00804 -78.63651 3490 ft 166 kts 227°
2026-05-07 02:41 35.99991 -78.64660 3300 ft 164 kts 227°
2026-05-07 02:41 35.99187 -78.65658 3074 ft 164 kts 227°
2026-05-07 02:42 35.98386 -78.66651 2853 ft 162 kts 227°
2026-05-07 02:42 35.97594 -78.67634 2640 ft 161 kts 227°
2026-05-07 02:42 35.96801 -78.68617 2435 ft 162 kts 225°
2026-05-07 02:42 35.96005 -78.69603 2212 ft 163 kts 225°
2026-05-07 02:43 35.95196 -78.70606 2001 ft 166 kts 225°
2026-05-07 02:43 35.94398 -78.71594 1793 ft 155 kts 225°
2026-05-07 02:43 35.93680 -78.72484 1606 ft 141 kts 224°
2026-05-07 02:43 35.93000 -78.73326 1416 ft 137 kts 224°
2026-05-07 02:44 35.92334 -78.74149 1235 ft 135 kts 224°
2026-05-07 02:44 35.91667 -78.74980 1054 ft 135 kts 225°
2026-05-07 02:44 35.90999 -78.75814 902 ft 136 kts 224°
2026-05-07 02:44 35.90322 -78.76641 719 ft 138 kts 224°
2026-05-07 02:45 35.89649 -78.77474 535 ft 136 kts 225°
2026-05-07 02:45 35.89005 -78.78281 393 ft 125 kts 224°
2026-05-07 02:45 35.88497 -78.78900 391 ft 78 kts 224°
2026-05-07 02:45 35.88231 -78.79227 392 ft 37 kts 225°
2026-05-07 02:46 35.88059 -78.79437 393 ft 33 kts 223°
2026-05-07 02:46 35.87928 -78.79455 393 ft 13 kts 158°
2026-05-07 02:46 35.87852 -78.79505 392 ft 14 kts 224°
2026-05-07 02:46 35.87778 -78.79595 392 ft 16 kts 225°
2026-05-07 02:47 35.87695 -78.79699 391 ft 18 kts 225°
2026-05-07 02:47 35.87601 -78.79814 391 ft 16 kts 225°
2026-05-07 02:47 35.87511 -78.79784 391 ft 16 kts 139°
2026-05-07 02:47 35.87430 -78.79688 392 ft 13 kts 135°
2026-05-07 02:48 35.87438 -78.79648 392 ft 3 kts 34°
2026-05-07 02:48 35.87458 -78.79641 392 ft 3 kts 17°
2026-05-07 02:48 35.87472 -78.79635 392 ft 2 kts 18°
2026-05-07 02:48 35.87477 -78.79633 392 ft 0 kts 19°